Location: Kirch Dinhard
(47.5550°N, 8.7759°E)
Time: 07:36:54
(UTC+00:00)

Daily predictions for brighter satellites

Satellite Brightness Start Highest point End
(mag) Time Altitude Azimuth Time Altitude Azimuth Time Altitude Azimuth
CREW DRAGON DEMO-1 DEB 3.5 16:09:58 10° WNW 16:12:47 37° N 16:15:36 10° ENE
Cosmos 2322 4.1 16:09:59 10° SW 16:15:37 68° WNW 16:21:18 10° NNE
Cosmos 1939 Rocket 4.4 16:14:18 10° E 16:16:38 16° ENE 16:18:59 10° NNE
Cosmos 2369 Rocket 4.0 16:14:40 10° N 16:17:05 13° NNE 16:19:29 10° ENE
Cosmos 1869 3.5 16:13:09 10° SSW 16:17:12 81° W 16:21:19 10° N
USA 281 4.1 16:12:46 10° E 16:18:05 27° NE 16:23:24 10° N
Cosmos 2184 Rocket 4.1 16:12:13 10° N 16:18:39 79° E 16:25:00 10° SSE
CORIOLIS 4.4 16:15:31 10° SE 16:20:40 47° ENE 16:25:52 10° N
Cosmos 1814 Rocket 4.1 16:17:29 10° SSW 16:22:50 87° ESE 16:28:11 10° NNE
Cosmos 1980 4.2 16:18:49 10° S 16:24:06 42° ESE 16:29:26 10° NE
Cosmos 2221 2.5 16:23:41 10° S 16:28:02 86° E 16:32:23 10° N
H-2A R/B 3.6 16:27:01 10° S 16:30:45 55° W 16:34:33 10° NNW
Cosmos 1570 Rocket 4.4 16:27:02 10° SSW 16:32:19 69° WNW 16:37:37 10° NNE
Cosmos 1500 Rocket 3.5 16:28:42 10° N 16:33:07 84° E 16:37:32 10° S
Abrixas rocket 3.0 16:30:44 10° W 16:33:21 40° SSW 16:36:00 10° SE
Meteor 2-2 Rocket 4.4 16:29:27 10° S 16:35:26 85° E 16:41:21 10° NNE
YAOGAN 6 2.6 16:31:54 10° SSE 16:35:34 86° W 16:39:13 10° NNW
CZ-4C R/B 3.3 16:34:59 10° N 16:38:37 74° WNW 16:42:13 10° SSW
Cosmos 405 Rocket 2.8 16:37:26 10° NNW 16:41:21 85° WSW 16:45:18 10° S
ADEOS Rocket 3.8 16:35:57 10° NNE 16:43:34 77° WNW 16:51:20 10° SSW
Cosmos 2297 4.4 16:38:31 10° NNW 16:43:38 33° NE 16:48:44 10° ESE
YAOGAN 1 4.0 16:44:13 13° E 16:46:01 17° ENE 16:48:45 10° NNE
Cosmos 405 3.9 16:42:55 10° SSW 16:46:19 49° WNW 16:49:44 10° N
Cosmos 1943 Rocket 3.3 16:42:26 10° N 16:46:48 23° NE 16:50:05 14° E
Cosmos 389 Rocket 3.3 16:43:55 10° SSE 16:46:56 29° E 16:49:22 14° NE
Cosmos 44 4.2 16:45:19 10° NNW 16:50:02 33° NE 16:54:10 13° E
H-2A R/B 3.5 16:46:35 10° S 16:50:50 51° W 16:54:58 10° NNW
Cosmos 1933 4.4 16:48:23 10° SE 16:51:38 24° E 16:53:49 16° NE
BREEZE-M DEB (TANK) 1.5 16:49:46 10° WSW 16:51:57 77° SSE 16:53:03 25° ENE
Cosmos 2322 Rocket 4.5 16:48:52 10° WNW 16:52:23 16° NW 16:55:55 10° N
USA 215 3.5 16:47:51 14° ENE 16:53:31 54° SE 16:59:53 10° SSW
SL-16 R/B 3.2 16:49:27 10° SSE 16:53:58 25° ESE 16:56:52 17° ENE
Cosmos 1867 4.4 16:49:18 10° S 16:54:02 31° ESE 16:57:17 18° ENE
Cosmos 1743 Rocket 4.3 16:51:00 10° NNW 16:55:25 57° W 16:59:46 10° S
COSMO-SKYMED 1 3.4 16:52:07 12° NE 16:55:35 29° E 16:59:22 10° SSE
CZ-2C R/B 3.9 16:51:54 10° ESE 16:56:06 26° ENE 17:00:09 10° N
Okean-O 3.6 16:53:47 10° ESE 16:57:21 25° ENE 17:00:57 10° N
Cosmos 2218 Rocket 4.4 16:52:24 10° N 16:58:07 38° ENE 17:03:48 10° SE
Cosmos 2150 Rocket 4.5 16:53:38 10° NNW 16:58:45 65° WSW 17:03:49 10° S
Cosmos 1818 3.9 16:54:53 10° NW 17:00:21 73° SW 17:05:47 10° SSE
AQUARIUS 4.3 16:57:00 10° S 17:01:28 77° WSW 17:06:00 10° NNW
Cosmos 1606 2.8 17:00:43 10° S 17:04:32 56° E 17:08:21 10° NNE
Sich 1 2.9 17:00:13 10° N 17:04:38 70° E 17:08:58 10° SSE
Okean O Rocket 2.1 17:04:12 10° S 17:08:30 63° WSW 17:12:51 10° NNW
Cosmos 2366 rocket 4.2 17:03:21 10° N 17:09:17 44° ENE 17:15:08 10° SE
Cosmos 2333 Rocket 3.6 17:04:26 10° WSW 17:09:39 36° NW 17:14:52 10° NNE
Helios 1A Rocket 3.7 17:07:32 16° ESE 17:09:58 29° ENE 17:13:27 10° N
Nadezhda 1 Rocket 4.3 17:05:52 10° SSW 17:12:11 71° W 17:18:36 10° N
ISS -3.8 17:08:57 10° WSW 17:12:19 79° SSE 17:13:33 36° ENE
Cosmos 1125 Rocket 3.8 17:08:23 10° NNW 17:13:34 68° WSW 17:18:44 10° S
Cosmos 1356 3.2 17:10:56 10° N 17:14:23 75° ENE 17:17:48 10° SSE
COSMOS 2428 3.9 17:09:42 10° WSW 17:15:05 41° NW 17:20:30 10° NNE
Cosmos 1805 Rocket 3.9 17:11:04 10° NNW 17:15:32 69° W 17:19:57 10° S
Meteor 1-20 Rocket 4.3 17:10:01 10° N 17:15:48 56° ENE 17:21:31 10° SSE
Feng Yun 1-1 Rocket 4.2 17:10:32 10° SSE 17:16:20 75° ENE 17:22:01 10° NNW
SAR-Lupe-4 4.0 17:15:58 33° ENE 17:16:54 40° E 17:20:17 10° S
CZ-4B R/B 1.0 17:17:16 21° NNE 17:19:11 86° ESE 17:22:16 10° SSW
Cosmos 2278 Rocket 3.4 17:15:21 10° NW 17:20:45 45° WSW 17:26:07 10° S
Cosmos 1666 Rocket 3.4 17:17:23 10° N 17:21:47 68° E 17:26:10 10° SSE
Cosmos 1151 Rocket 3.3 17:17:45 10° SSE 17:21:47 41° E 17:23:24 29° NE
IRS-1C Rocket 4.0 17:20:31 10° SSE 17:25:45 71° ENE 17:31:02 10° N
USA 267 3.2 17:21:44 16° ESE 17:27:07 77° NNE 17:33:40 10° NW
Cosmos 1328 Rocket 3.8 17:23:38 10° SSE 17:27:41 42° E 17:28:37 36° ENE
Lacrosse 5 rocket 2.7 17:25:57 10° S 17:28:08 20° SE 17:28:08 20° SE
ERS-2 2.2 17:29:45 17° N 17:32:30 79° WNW 17:36:09 10° SSW
Cosmos 2341 Rocket 4.1 17:27:32 10° N 17:33:50 81° W 17:40:09 10° S
EO 1 Delta rocket 4.4 17:28:56 10° NNE 17:34:05 57° E 17:40:28 10° S
SAR-Lupe-1 4.0 17:33:31 52° ENE 17:34:05 61° ESE 17:37:38 10° S
SL-24 R/B 3.8 17:32:45 35° NE 17:34:14 57° E 17:37:58 10° S
Meteor 1-25 Rocket 4.1 17:29:00 10° N 17:34:37 74° ENE 17:40:16 10° SSE
CZ-2D R/B 3.1 17:31:38 10° SSE 17:35:25 73° ENE 17:39:15 10° N
CZ-4 R/B 1.3 17:38:23 53° E 17:38:42 54° ENE 17:42:37 10° N
H-2A R/B 4.0 17:37:09 10° N 17:40:37 27° WNW 17:44:09 10° WSW
Cosmos 2219 Rocket 4.1 17:36:16 10° W 17:40:53 25° NW 17:45:32 10° N
CZ-3B R/B 3.9 17:42:21 10° S 17:42:21 10° S 17:42:21 10° S
SKYMED 2 3.5 17:40:45 19° NNE 17:43:52 87° ESE 17:48:12 10° SSW
BREEZE-M DEB (TANK) 3.4 17:41:52 10° WSW 17:43:13 29° SW 17:43:13 29° SW
USA 81 4.0 17:40:09 10° N 17:45:28 89° W 17:50:45 10° S
SL-24 DEB 4.2 17:42:30 10° N 17:47:16 64° E 17:51:57 10° S
CREW DRAGON DEMO-1 DEB 3.6 17:45:26 10° WNW 17:47:43 48° WNW 17:47:43 48° WNW
Cosmos 2285 Rocket 3.9 17:42:37 10° NNW 17:49:04 81° ENE 17:55:27 10° SSE
Cosmos 2237 Rocket 2.9 17:44:24 10° SW 17:49:52 51° WNW 17:54:26 15° NNE
Cosmos 1939 Rocket 3.6 17:47:24 10° S 17:51:10 52° W 17:54:59 10° NNW
Cosmos 1633 Rocket 3.2 17:48:06 10° NNW 17:52:29 72° W 17:56:49 10° S
H-2A R/B 2.1 17:52:26 38° SE 17:54:11 55° ENE 17:59:17 10° N
SL-8 Rocket 4.2 17:51:48 10° NNW 17:57:59 70° W 18:04:12 10° S
Cosmos 864 Rocket 4.5 17:51:41 10° N 17:58:02 87° W 18:04:19 10° S
Cosmos 773 Rocket 3.9 17:53:39 10° S 17:58:48 61° ESE 17:59:15 58° E
CSL-04 Rocket 3.6 18:01:44 57° E 18:01:59 58° ENE 18:07:13 10° N
USA 281 3.2 17:55:25 10° SSE 18:01:59 81° WSW 18:08:35 10° NNW
Cosmos 2369 Rocket 2.5 17:57:09 10° NNW 18:02:10 45° NE 18:02:10 45° NE
MOS 1 Rocket 3.5 18:03:47 47° NE 18:05:16 68° E 18:10:41 10° S
Cosmos 2181 Rocket 4.2 17:58:54 10° SSW 18:05:20 73° W 18:11:44 10° N
Cosmos 783 Rocket 4.4 18:00:03 10° SSW 18:05:22 88° WNW 18:07:10 43° NNE
Cosmos 1821 Rocket 4.0 18:05:40 10° N 18:11:29 56° ENE 18:11:29 56° ENE
Cosmos 1241 Rocket 4.5 18:07:55 10° NW 18:14:34 88° SW 18:17:23 38° SSE
YAOGAN 1 2.9 18:21:23 60° WSW 18:21:39 62° WSW 18:25:58 10° NNW
SL-08 R/B 4.4 18:20:34 10° N 18:26:46 82° W 18:32:52 10° S
Cosmos 1470 Rocket 4.3 18:23:37 10° NNW 18:27:22 50° WNW 18:27:22 50° WNW
Cosmos 1943 Rocket 2.2 18:25:36 10° NNW 18:31:09 75° WSW 18:31:41 68° SSW
Meteor 1-14 Rocket 4.5 18:25:18 10° NNW 18:31:13 73° W 18:37:10 10° S
Cosmos 44 4.0 18:26:23 10° NW 18:31:34 56° WSW 18:32:40 47° SSW
COSMO-SKYMED 1 4.2 18:29:20 19° NNW 18:31:45 32° WNW 18:35:36 10° SW
Okean-O 3.9 18:29:28 10° SSW 18:33:39 40° W 18:37:50 10° NNW
CZ-2C R/B 3.9 18:30:50 10° S 18:35:48 46° W 18:40:32 10° NNW
USA 215 3.5 18:35:13 51° NNE 18:36:38 63° NNW 18:43:03 10° WSW
ARGOS 3.8 18:38:31 46° NNW 18:38:31 46° NNW 18:42:14 10° NNW
Cosmos 1867 4.1 18:32:07 10° WSW 18:37:25 52° NW 18:37:58 50° NNW
SL-16 R/B 2.7 18:32:07 10° SW 18:37:42 57° WNW 18:38:47 49° NNW
ISS -0.4 18:46:05 10° W 18:46:31 13° WNW 18:46:31 13° WNW
USA 267 4.2 19:09:07 35° SSW 19:10:28 39° SW 19:16:32 10° WNW
CZ-4 R/B 4.3 19:14:25 14° W 19:14:25 14° W 19:16:15 10° WNW
H-2A R/B 4.2 19:33:03 22° WSW 19:33:54 23° W 19:38:02 10° NW
Cosmos 2369 Rocket 4.3 19:41:31 10° NW 19:43:59 23° WNW 19:43:59 23° WNW
